INTELSAT 18 (IS-18)

Last updated on Aug. 11, 2020, 5:36 a.m. UTC

1 37834U 11056A   20223.55050433  .00000052  00000-0  00000-0 0  9999
2 37834   0.0166 103.0093 0002093  47.1917 187.4470  1.00273575 32500
UTC
Height (km)
Latitude
Longitude
Inclination
Orbital Period
UTC large
Height (km)
Speed (km/s)
/
Latitude / Longitude
Inclination (degrees)
Orbital Period (minutes)
Azimuth
Elevation
Range (km)
Doppler Factor
iOS Compass Heading
iOS Angle

Next 30 passes for location: Hong Kong

Rise time Rise Azimuth (degrees) Set time Set Azimuth (degrees) Duration Max altitude (degrees)

No matching passes for this satellites